Home   Weather   Paris Park   Past weeks
Flag for USA

Past Weather in Paris Park, Kansas, USA — Yesterday and Last 2 Weeks

Now
53 °F

Scattered clouds.


Feels Like: 49 °F
Forecast: 70 / 53 °F
Wind: 15 mph from North

Location: Wichita Mid-Continent Airport

Current Time: Oct 19, 2019 at 10:08:16 am

Latest Report: Oct 19, 2019 at 8:53 am


Visibility: 10 mi

Pressure: 29.78 "Hg

Humidity: 80%

Dew Point: 47 °F

Location of Paris ParkLocation

Past Weather in Paris Park — Graph

°F

Paris Park Temperature Yesterday

Maximum temperature yesterday: 76 °F (at 2:53 pm)
Minimum temperature yesterday: 52 °F (at 5:53 am)
Average temperature yesterday: 63 °F

High & Low Weather Summary for the Past Weeks

 TemperatureHumidityPressure
High79 °F (Oct 14, 2:53 pm)97% (Oct 15, 5:08 am)30.36 "Hg (Oct 15, 5:08 am)
Low31 °F (Oct 12, 7:53 am)21% (Oct 12, 3:53 pm)29.57 "Hg (Oct 18, 4:53 pm)
Average58 °F63%29.98 "Hg
* Reported Oct 4 9:20 am — Oct 19 8:53 am, Paris Park. Weather by CustomWeather, © 2019

Note: Actual official high and low records may vary slightly from our data, if they occured in-between our weather recording intervals... More about our weather records

Advertising

Paris Park Weather History for the Previous 24 Hours

Scroll right to see more
 ConditionsComfort  
Time TempWeatherWind HumidityBarometerVisibility
8:53 am
Sat, Oct 19
53 °FScattered clouds.15 mph80%29.78 "Hg10 mi
8:22 am53 °FScattered clouds.14 mph80%29.78 "Hg10 mi
7:53 am53 °FPartly sunny.15 mph86%29.75 "Hg10 mi
6:53 am55 °FPassing clouds.17 mph83%29.72 "Hg10 mi
6:39 am55 °FPassing clouds.13 mph87%29.74 "Hg10 mi
5:53 am54 °FPassing clouds.7 mph90%29.70 "Hg10 mi
4:53 am55 °FMostly cloudy.7 mph87%29.67 "Hg10 mi
3:53 am55 °FOvercast.3 mph87%29.66 "Hg10 mi
2:53 am56 °FOvercast.5 mph81%29.65 "Hg10 mi
1:53 am58 °FThunderstorms. Overcast.16 mph70%29.65 "Hg10 mi
1:22 am60 °FThunderstorms. Mostly cloudy.12 mph56%29.66 "Hg10 mi
12:53 am59 °FPartly cloudy.8 mph58%29.64 "Hg10 mi
12:07 am62 °FOvercast.12 mph50%29.72 "Hg10 mi
11:53 pm
Fri, Oct 18
63 °FPassing clouds.16 mph48%29.63 "Hg10 mi
10:53 pm62 °FPassing clouds.17 mph50%29.60 "Hg10 mi
9:53 pm62 °FPassing clouds.17 mph48%29.59 "Hg10 mi
8:53 pm64 °FPassing clouds.16 mph45%29.60 "Hg10 mi
7:53 pm66 °FPassing clouds.16 mph40%29.59 "Hg10 mi
6:53 pm68 °FPassing clouds.17 mph38%29.58 "Hg10 mi
5:53 pm73 °FSunny.25 mph36%29.57 "Hg10 mi
4:53 pm74 °FSunny.28 mph38%29.57 "Hg10 mi
3:53 pm76 °FSunny.23 mph39%29.58 "Hg10 mi
2:53 pm76 °FSunny.28 mph39%29.58 "Hg10 mi
1:53 pm74 °FSunny.26 mph41%29.62 "Hg10 mi
12:53 pm71 °FSunny.26 mph44%29.66 "Hg10 mi
11:53 am66 °FSunny.22 mph50%29.70 "Hg10 mi
10:53 am63 °FPassing clouds.26 mph52%29.72 "Hg10 mi
Weather by CustomWeather, © 2019

See weather overview